Overview Statistics Trail Chart Weather Telemetry Raw packets
 

This is the latest recevied weather packets stored in our database for station/object K6GMW. If no packets are shown the sender has not sent any weather packets the latest 10 day(s).

<< 9 10 11 12 13 14 15 >>
Time Temp. Humidity Pressure Rain* Wind** Luminosity Snow
1788564810 37.78° C 40% 1013 hPa 0 mm - 94 W/m² -
1788564506 37.78° C 40% 1012.8 hPa 0 mm - 111 W/m² -
1788564203 37.78° C 39% 1012.7 hPa 0 mm - 139 W/m² -
1788563898 37.78° C 38% 1012.8 hPa 0 mm - 163 W/m² -
1788563593 37.22° C 39% 1012.8 hPa 0 mm - 165 W/m² -
1788563289 38.33° C 37% 1012.8 hPa 0 mm - 174 W/m² -
1788562987 37.78° C 37% 1012.9 hPa 0 mm - 194 W/m² -
1788562682 38.33° C 37% 1012.9 hPa 0 mm - 218 W/m² -
1788562381 38.33° C 37% 1012.9 hPa 0 mm - 225 W/m² -
1788562080 38.33° C 37% 1012.9 hPa 0 mm - 232 W/m² -
1788561776 37.78° C 38% 1012.8 hPa 0 mm - 270 W/m² -
1788561475 37.78° C 38% 1012.9 hPa 0 mm - 279 W/m² -
1788561170 37.78° C 39% 1012.8 hPa 0 mm - 302 W/m² -
1788560866 37.78° C 36% 1012.9 hPa 0 mm - 325 W/m² -
1788560561 37.22° C 37% 1012.8 hPa 0 mm - 333 W/m² -
1788560264 37.78° C 38% 1012.8 hPa 0 mm - 365 W/m² -
1788559956 37.78° C 36% 1012.9 hPa 0 mm - 387 W/m² -
1788559651 37.78° C 36% 1012.8 hPa 0 mm - 413 W/m² -
1788559345 37.78° C 37% 1012.9 hPa 0 mm - 419 W/m² -
1788559046 37.78° C 38% 1013 hPa 0 mm - 436 W/m² -
1788558741 37.78° C 38% 1013 hPa 0 mm - 447 W/m² -
1788558442 37.22° C 38% 1012.9 hPa 0 mm - 463 W/m² -
1788558132 37.78° C 37% 1013.2 hPa 0 mm - 492 W/m² -
1788557830 37.78° C 37% 1013.2 hPa 0 mm - 517 W/m² -
1788557527 37.78° C 36% 1013.3 hPa 0 mm - 534 W/m² -

* Rain latest hour (hover to see other rain measurements)
** Current wind speed in m/s (hover to see current wind gust speed)